TimeEST,TemperatureF,Dew PointF,Humidity,Sea Level PressureIn,VisibilityMPH,Wind Direction,Wind SpeedMPH,Gust SpeedMPH,PrecipitationIn,Events,Conditions,WindDirDegrees,DateUTC
12:53 AM,54.0,-9999,N/A,30.13,10.0,Calm,Calm,-,N/A,,Clear,0,2012-11-26 05:53:00
1:53 AM,53.1,-9999,N/A,30.12,10.0,Calm,Calm,-,N/A,,Clear,0,2012-11-26 06:53:00
2:53 AM,52.0,-9999,N/A,30.12,10.0,ENE,3.5,-,N/A,,Clear,60,2012-11-26 07:53:00
3:53 AM,50.0,-9999,N/A,30.12,10.0,ENE,3.5,-,N/A,,Clear,60,2012-11-26 08:53:00
4:37 AM,51.8,-9999,N/A,30.13,10.0,NE,3.5,-,N/A,,Partly Cloudy,50,2012-11-26 09:37:00
4:53 AM,51.1,-9999,N/A,30.13,10.0,NE,3.5,-,N/A,,Partly Cloudy,40,2012-11-26 09:53:00
5:20 AM,51.8,-9999,N/A,30.13,8.0,NE,4.6,-,N/A,,Mostly Cloudy,50,2012-11-26 10:20:00
5:39 AM,51.8,-9999,N/A,30.14,5.0,NE,4.6,-,N/A,,Haze,50,2012-11-26 10:39:00
5:53 AM,52.0,-9999,N/A,30.14,6.0,ENE,4.6,-,N/A,,Haze,60,2012-11-26 10:53:00
6:53 AM,52.0,50.4,94,30.15,5.0,ENE,3.5,-,N/A,,Clear,60,2012-11-26 11:53:00
7:53 AM,55.0,52.3,91,30.16,5.0,ENE,4.6,-,N/A,,Clear,60,2012-11-26 12:53:00
8:53 AM,62.1,54.0,75,30.18,8.0,ENE,3.5,-,N/A,,Clear,60,2012-11-26 13:53:00
9:53 AM,70.0,55.6,60,30.19,10.0,ENE,4.6,-,N/A,,Clear,70,2012-11-26 14:53:00
10:53 AM,73.9,57.0,55,30.19,10.0,East,6.9,-,N/A,,Clear,100,2012-11-26 15:53:00
11:53 AM,77.0,60.1,56,30.17,10.0,ESE,9.2,-,N/A,,Clear,120,2012-11-26 16:53:00
12:53 PM,78.1,59.0,52,30.15,10.0,South,6.9,-,N/A,,Clear,170,2012-11-26 17:53:00
1:53 PM,75.9,62.1,62,30.13,10.0,West,8.1,-,N/A,,Clear,260,2012-11-26 18:53:00
2:53 PM,77.0,61.0,58,30.11,10.0,SW,9.2,-,N/A,,Clear,220,2012-11-26 19:53:00
3:53 PM,77.0,60.1,56,30.11,10.0,SW,8.1,-,N/A,,Mostly Cloudy,230,2012-11-26 20:53:00
4:53 PM,75.0,61.0,62,30.12,10.0,West,5.8,-,N/A,,Clear,260,2012-11-26 21:53:00
5:53 PM,71.1,63.0,75,30.13,10.0,Calm,Calm,-,N/A,,Clear,0,2012-11-26 22:53:00
6:53 PM,68.0,62.1,81,30.14,10.0,Calm,Calm,-,N/A,,Clear,0,2012-11-26 23:53:00
7:53 PM,66.9,63.0,87,30.16,9.0,Calm,Calm,-,N/A,,Scattered Clouds,0,2012-11-27 00:53:00
8:53 PM,66.0,62.1,87,30.17,8.0,Calm,Calm,-,N/A,,Clear,0,2012-11-27 01:53:00
9:53 PM,66.0,62.1,87,30.19,8.0,Calm,Calm,-,N/A,,Clear,0,2012-11-27 02:53:00
10:53 PM,64.9,62.1,90,30.18,9.0,Calm,Calm,-,N/A,,Clear,0,2012-11-27 03:53:00
11:53 PM,63.0,61.0,93,30.17,9.0,Calm,Calm,-,N/A,,Clear,0,2012-11-27 04:53:00